Regional Weather Roundup
Issued by NWS Albany, NY

Home | Current Version | Previous Version | Text Only | Print | Product List | Glossary On
Versions: 1 2 3 4 5 6 7 8 9 10 11 12 13 14 15 16 17 18 19 20 21 22 23 24 25 26 27 28 29 30 31 32 33 34 35 36 37 38 39 40 41 42 43 44 45 46 47 48 49 50
000
ASUS41 KALY 220210
RWRALY

NEW YORK STATE HOURLY WEATHER ROUNDUP
NATIONAL WEATHER SERVICE ALBANY NY
1000 PM EDT MON AUG 21 2017

NOTE: "FAIR" INDICATES FEW OR NO CLOUDS BELOW 12,000 FEET WITH NO
SIGNIFICANT WEATHER AND/OR NO OBSTRUCTIONS TO VISIBILITY.

NYZ032-033-038>043-046>054-057>066-NYZ062>081-082-084-220300-
EAST


CITY           SKY/WX    TMP DP  RH WIND       PRES   REMARKS
ALBANY         PTCLDY    77  67  71 S7        30.05F
GLENS FALLS    CLEAR     66  65  96 CALM      30.04F
POUGHKEEPSIE   PTCLDY    73  68  84 CALM      30.07F
NEWBURGH       PTCLDY    77  72  83 SW6       30.12R
MONTGOMERY     CLEAR     74  70  87 SW3       30.09S
WHITE PLAINS   CLEAR     75  69  81 S3        30.12R
ISLIP          PTCLDY    76  72  87 SW9       30.12S
NEW YORK CITY  PTCLDY    81  71  71 SW12      30.11R
CENTRAL PARK   CLOUDY    80  69  69 VRB6G17   30.14S
$$

NYZ005>009-017-018-044>046-055-056-220300-
CENTRAL


CITY           SKY/WX    TMP DP  RH WIND       PRES   REMARKS
FULTON         CLEAR     68  66  93 CALM      30.04S
SYRACUSE       PTCLDY    73  68  84 CALM      30.04S
ROME           CLEAR     69  67  93 CALM      30.05S
ELMIRA         PTCLDY    68  32  26 CALM      30.09R FOG
BINGHAMTON     CLEAR     68  65  90 S6        30.12S
MONTICELLO     CLEAR     71  69  93 SW3       30.16R
$$

NYZ026>034-041>043-087-220300-
NORTH


CITY           SKY/WX    TMP DP  RH WIND       PRES   REMARKS
WATERTOWN      CLEAR     70  67  90 CALM      30.03R
FORT DRUM      NOT AVBL
OGDENSBURG     FAIR      71  65  83 S6        30.01S
MASSENA        CLEAR     71  66  84 SW7       30.01S
SARANAC LAKE   CLEAR     63  61  93 S6        30.07S
PLATTSBURGH    CLEAR     68  64  87 CALM      30.00S
$$

NYZ001>004-010>016-019>021-085-220300-
WEST


CITY           SKY/WX    TMP DP  RH WIND       PRES   REMARKS
NIAGARA FALLS  PTCLDY    74  67  78 S6        30.03S
BUFFALO        PTCLDY    74  68  81 S6        30.05S
DUNKIRK        MOCLDY    69  67  93 CALM      30.05F
JAMESTOWN      PTCLDY    70  63  78 S5        30.13R
WELLSVILLE     CLEAR     73  57  57 W3        30.16S
ROCHESTER      PTCLDY    73  68  84 CALM      30.05R
PENN YAN       CLEAR     71  65  81 CALM      30.08S
$$

             KEY
       WCI = WIND CHILL INDEX
       VSB = VISIBILITY
       HX  = HEAT INDEX
$$



USA.gov is the U.S. government's official web portal to all federal, state and local government web resources and services.